Location: Unspecified
(58.9933°N, 5.6375°E)
Time: 12:59:34
(UTC+02:00)

Resurs 1-4 Rocket - Visible Passes

Search period start: 18 October 2017 00:00
Search period end: 28 October 2017 00:00
Orbit: 801 x 813 km, 98.5° (Epoch: 17 October)

Date Brightness Start Highest point End Pass type
(mag) Time Alt. Az. Time Alt. Az. Time Alt. Az.
18 Oct 4.7 02:10:36 10° NE 02:11:55 12° ENE 02:11:55 12° ENE visible
18 Oct 3.0 03:48:48 10° NNE 03:52:58 47° ENE 03:52:58 47° ENE visible
18 Oct 2.7 05:28:53 10° N 05:33:48 39° WNW 05:34:03 38° WNW visible
18 Oct 4.0 07:09:51 10° N 07:12:24 14° NW 07:14:57 10° WNW visible
19 Oct 3.6 03:24:19 10° NNE 03:28:00 33° ENE 03:28:00 33° ENE visible
19 Oct 2.4 05:04:11 10° NNE 05:09:04 52° NW 05:09:04 52° NW visible
19 Oct 3.7 06:44:52 10° N 06:48:14 17° NW 06:50:08 14° WNW visible
20 Oct 4.1 02:59:58 10° NNE 03:03:01 24° ENE 03:03:01 24° ENE visible
20 Oct 2.3 04:39:31 10° NNE 04:44:04 62° NNW 04:44:04 62° NNW visible
20 Oct 3.4 06:20:01 10° N 06:24:00 22° NW 06:25:09 21° WNW visible
21 Oct 4.5 02:35:48 10° NE 02:38:01 17° ENE 02:38:01 17° ENE visible
21 Oct 2.7 04:14:55 10° NNE 04:19:06 55° NNE 04:19:06 55° NNE visible
21 Oct 3.1 05:55:13 10° N 05:59:43 29° NW 06:00:10 28° WNW visible
21 Oct 4.1 07:36:49 10° NNW 07:38:03 11° NNW 07:39:17 10° NW visible
22 Oct 4.8 02:12:04 10° NE 02:13:02 12° ENE 02:13:02 12° ENE visible
22 Oct 3.2 03:50:21 10° NNE 03:54:07 42° NE 03:54:07 42° NE visible
22 Oct 2.8 05:30:28 10° N 05:35:11 38° NW 05:35:11 38° NW visible
22 Oct 4.0 07:11:28 10° N 07:13:56 13° NW 07:16:15 10° WNW visible
23 Oct 3.7 03:25:53 10° NNE 03:29:07 31° NE 03:29:07 31° NE visible
23 Oct 2.6 05:05:46 10° NNE 05:10:12 48° NW 05:10:12 48° NW visible
23 Oct 3.7 06:46:28 10° N 06:49:47 17° NW 06:51:16 15° WNW visible
24 Oct 4.2 03:01:31 10° NNE 03:04:08 22° ENE 03:04:08 22° ENE visible
24 Oct 2.6 04:41:06 10° NNE 04:45:13 52° N 04:45:13 52° N visible
24 Oct 3.4 06:21:36 10° N 06:25:33 22° NW 06:26:17 21° WNW visible
25 Oct 4.6 02:37:20 10° NE 02:39:09 16° ENE 02:39:09 16° ENE visible
25 Oct 3.0 04:16:29 10° NNE 04:20:13 46° NNE 04:20:13 46° NNE visible
25 Oct 3.1 05:56:47 10° N 06:01:16 28° NW 06:01:18 28° NW visible
25 Oct 4.1 07:38:29 10° NNW 07:39:35 11° NNW 07:40:40 10° NW visible
26 Oct 4.9 02:13:32 10° NE 02:14:10 11° ENE 02:14:10 11° ENE visible
26 Oct 3.4 03:51:55 10° NNE 03:55:15 37° NE 03:55:15 37° NE visible
26 Oct 2.9 05:32:02 10° N 05:36:19 36° NW 05:36:19 36° NW visible
26 Oct 4.0 07:13:04 10° N 07:15:28 13° NW 07:17:23 11° NW visible
27 Oct 3.9 03:27:25 10° NNE 03:30:16 28° NE 03:30:16 28° NE visible
27 Oct 2.8 05:07:20 10° NNE 05:11:20 43° NNW 05:11:20 43° NNW visible
27 Oct 3.7 06:48:03 10° N 06:51:19 17° NW 06:52:24 16° NW visible
